IW9GDC-13 Weather Reports


Display with metric or nautical units.
time (UTC)temp
F
wind
direction
speed
MPH
gust
MPH
rain 1hr
in
rain 24hr
in
rain mn
in
humidity
%
barometer
mb
20260906174516 84 248 1.0 2.0 0.00 0.00 0.00 65 1020.2
20260906174016 84 248 1.0 3.0 0.00 0.00 0.00 65 1020.2
20260906173516 84 225 2.0 4.0 0.00 0.00 0.00 65 1020.1
20260906173016 84 270 2.0 4.0 0.00 0.00 0.00 64 1020.1
20260906172516 84 90 3.0 9.0 0.00 0.00 0.00 64 1020.0
20260906172016 85 68 2.0 8.0 0.00 0.00 0.00 63 1020.0
20260906171557 85 135 2.0 8.0 0.00 0.00 0.00 63 1020.0
20260906171016 85 248 2.0 7.0 0.00 0.00 0.00 63 1019.9
20260906170516 85 248 2.0 6.0 0.00 0.00 0.00 62 1019.8
20260906170016 85 180 2.0 6.0 0.00 0.00 0.00 63 1019.8
20260906165516 85 45 3.0 9.0 0.00 0.00 0.00 62 1019.8
20260906165016 85 225 2.0 6.0 0.00 0.00 0.00 62 1019.8
20260906164516 86 90 5.0 11.0 0.00 0.00 0.00 61 1019.8
20260906164016 86 113 3.0 9.0 0.00 0.00 0.00 61 1019.9
20260906163516 86 113 3.0 8.0 0.00 0.00 0.00 60 1019.7
20260906163016 86 68 4.0 12.0 0.00 0.00 0.00 60 1019.7
20260906162516 87 90 4.0 12.0 0.00 0.00 0.00 59 1019.8
20260906162016 88 68 5.0 10.0 0.00 0.00 0.00 58 1019.7
20260906161516 89 90 4.0 12.0 0.00 0.00 0.00 56 1019.7
20260906161016 90 293 2.0 7.0 0.00 0.00 0.00 53 1019.7
20260906160537 91 315 3.0 8.0 0.00 0.00 0.00 52 1019.6
20260906160017 92 315 3.0 7.0 0.00 0.00 0.00 40 1019.5
20260906155516 93 90 1.0 6.0 0.00 0.00 0.00 36 1019.6
20260906155019 93 338 2.0 9.0 0.00 0.00 0.00 33 1019.6
20260906154537 93 0 2.0 5.0 0.00 0.00 0.00 34 1019.5
20260906154016 93 338 4.0 9.0 0.00 0.00 0.00 32 1019.5
20260906153516 93 338 2.0 6.0 0.00 0.00 0.00 33 1019.5
20260906153016 93 315 2.0 6.0 0.00 0.00 0.00 32 1019.5
20260906152516 93 315 5.0 9.0 0.00 0.00 0.00 32 1019.5
20260906152016 94 315 3.0 10.0 0.00 0.00 0.00 33 1019.4
20260906151516 94 293 3.0 10.0 0.00 0.00 0.00 34 1019.4
20260906151058 93 315 4.0 10.0 0.00 0.00 0.00 36 1019.4
20260906150516 94 0 4.0 9.0 0.00 0.00 0.00 36 1019.4
20260906150016 94 293 1.0 5.0 0.00 0.00 0.00 37 1019.4
20260906145556 94 0 4.0 8.0 0.00 0.00 0.00 37 1019.4
20260906145016 94 293 5.0 11.0 0.00 0.00 0.00 36 1019.4
20260906144536 94 338 4.0 8.0 0.00 0.00 0.00 36 1019.4
20260906144016 94 293 4.0 8.0 0.00 0.00 0.00 35 1019.4
20260906143516 94 338 3.0 12.0 0.00 0.00 0.00 35 1019.3
20260906143016 94 23 4.0 11.0 0.00 0.00 0.00 35 1019.2
20260906142556 94 293 2.0 8.0 0.00 0.00 0.00 35 1019.3
20260906142016 94 315 5.0 12.0 0.00 0.00 0.00 35 1019.2
20260906141516 94 338 5.0 11.0 0.00 0.00 0.00 33 1019.2
20260906141016 94 338 5.0 13.0 0.00 0.00 0.00 33 1019.3
20260906140516 94 0 5.0 15.0 0.00 0.00 0.00 32 1019.2
20260906140016 94 0 6.0 13.0 0.00 0.00 0.00 31 1019.3
20260906135516 94 0 6.0 10.0 0.00 0.00 0.00 33 1019.3
20260906135016 94 23 5.0 13.0 0.00 0.00 0.00 33 1019.3
20260906134516 94 315 5.0 12.0 0.00 0.00 0.00 33 1019.3
20260906134016 94 0 5.0 11.0 0.00 0.00 0.00 32 1019.2
20260906133516 94 23 5.0 11.0 0.00 0.00 0.00 32 1019.4
20260906133016 95 68 4.0 9.0 0.00 0.00 0.00 33 1019.3
20260906132515 94 293 4.0 9.0 0.00 0.00 0.00 33 1019.4
20260906132015 93 0 7.0 15.0 0.00 0.00 0.00 33 1019.3
20260906131556 92 0 6.0 11.0 0.00 0.00 0.00 36 1019.3
20260906131015 91 248 4.0 9.0 0.00 0.00 0.00 52 1019.3
20260906130515 90 270 4.0 11.0 0.00 0.00 0.00 54 1019.4
20260906130016 90 90 7.0 16.0 0.00 0.00 0.00 55 1019.4
20260906125516 91 90 4.0 13.0 0.00 0.00 0.00 53 1019.5
20260906125015 91 113 3.0 9.0 0.00 0.00 0.00 47 1019.4
20260906124515 92 68 4.0 8.0 0.00 0.00 0.00 47 1019.5
20260906124015 92 68 4.0 10.0 0.00 0.00 0.00 48 1019.6
20260906123515 92 90 6.0 11.0 0.00 0.00 0.00 42 1019.6
20260906123015 91 68 6.0 15.0 0.00 0.00 0.00 42 1019.6
20260906122516 90 90 7.0 15.0 0.00 0.00 0.00 54 1019.5
20260906122015 90 68 6.0 16.0 0.00 0.00 0.00 54 1019.5
20260906121515 90 90 6.0 17.0 0.00 0.00 0.00 52 1019.5
20260906121015 90 90 7.0 13.0 0.00 0.00 0.00 54 1019.5
20260906120516 90 68 8.0 17.0 0.00 0.00 0.00 54 1019.5
20260906120015 90 68 9.0 17.0 0.00 0.00 0.00 52 1019.4
20260906115516 91 68 10.0 19.0 0.00 0.00 0.00 52 1019.6
20260906115015 91 68 7.0 18.0 0.00 0.00 0.00 50 1019.6
20260906114515 92 68 8.0 19.0 0.00 0.00 0.00 48 1019.6
20260906114015 92 68 9.0 19.0 0.00 0.00 0.00 47 1019.7
20260906113515 93 68 6.0 13.0 0.00 0.00 0.00 39 1019.7
20260906113015 93 68 5.0 11.0 0.00 0.00 0.00 36 1019.7
20260906112536 93 315 5.0 10.0 0.00 0.00 0.00 37 1019.8
20260906112015 93 315 5.0 15.0 0.00 0.00 0.00 37 1019.6
20260906111515 93 90 8.0 17.0 0.00 0.00 0.00 39 1019.7
20260906111015 93 68 5.0 14.0 0.00 0.00 0.00 39 1019.8
20260906110535 93 90 7.0 14.0 0.00 0.00 0.00 40 1019.8
20260906110017 92 90 6.0 14.0 0.00 0.00 0.00 44 1019.8
20260906105517 92 90 8.0 16.0 0.00 0.00 0.00 42 1019.8
20260906105017 92 90 9.0 17.0 0.00 0.00 0.00 41 1019.8
20260906104517 92 68 7.0 16.0 0.00 0.00 0.00 43 1019.7
20260906104017 92 68 9.0 16.0 0.00 0.00 0.00 42 1019.8
20260906103537 92 68 7.0 16.0 0.00 0.00 0.00 40 1019.8
20260906103017 92 68 9.0 19.0 0.00 0.00 0.00 37 1019.8
20260906102517 92 68 11.0 17.0 0.00 0.00 0.00 37 1019.8
20260906102037 93 68 6.0 18.0 0.00 0.00 0.00 38 1019.8
20260906101517 93 68 7.0 18.0 0.00 0.00 0.00 36 1019.9
20260906101017 92 90 8.0 18.0 0.00 0.00 0.00 35 1019.9
20260906100517 92 68 6.0 15.0 0.00 0.00 0.00 36 1020.0
20260906100017 92 68 8.0 16.0 0.00 0.00 0.00 34 1019.9
20260906095517 92 68 9.0 16.0 0.00 0.00 0.00 34 1020.0
20260906095057 93 68 6.0 13.0 0.00 0.00 0.00 37 1020.0
20260906094517 93 90 6.0 14.0 0.00 0.00 0.00 36 1020.0
20260906094017 92 338 4.0 14.0 0.00 0.00 0.00 38 1019.9
20260906093517 92 0 6.0 15.0 0.00 0.00 0.00 38 1020.0
20260906093017 92 338 3.0 8.0 0.00 0.00 0.00 40 1020.1
20260906092517 91 68 5.0 13.0 0.00 0.00 0.00 41 1020.1
20260906092017 90 90 4.0 9.0 0.00 0.00 0.00 43 1020.1
20260906091517 90 68 5.0 12.0 0.00 0.00 0.00 52 1020.2
20260906091017 89 68 7.0 16.0 0.00 0.00 0.00 53 1020.1
20260906090517 89 68 10.0 17.0 0.00 0.00 0.00 53 1020.3
20260906090017 89 68 5.0 13.0 0.00 0.00 0.00 51 1020.3
20260906085519 89 68 9.0 15.0 0.00 0.00 0.00 52 1020.2
20260906085017 89 45 7.0 15.0 0.00 0.00 0.00 52 1020.2
20260906084517 89 45 7.0 16.0 0.00 0.00 0.00 52 1020.0
20260906084017 88 68 9.0 15.0 0.00 0.00 0.00 52 1020.1
20260906083517 88 68 9.0 17.0 0.00 0.00 0.00 56 1020.2
20260906083037 88 68 7.0 15.0 0.00 0.00 0.00 56 1020.3
20260906082537 88 90 7.0 15.0 0.00 0.00 0.00 56 1020.1
20260906082017 88 68 7.0 16.0 0.00 0.00 0.00 56 1020.2
20260906081517 87 68 7.0 13.0 0.00 0.00 0.00 56 1020.0
20260906081017 87 68 8.0 15.0 0.00 0.00 0.00 59 1020.1
20260906080517 87 68 8.0 14.0 0.00 0.00 0.00 59 1020.1
20260906080037 87 68 10.0 17.0 0.00 0.00 0.00 59 1020.1
20260906075517 87 68 7.0 13.0 0.00 0.00 0.00 59 1020.1
20260906075017 87 90 4.0 13.0 0.00 0.00 0.00 59 1020.1
20260906074517 87 68 5.0 11.0 0.00 0.00 0.00 59 1020.0
20260906074017 87 68 5.0 13.0 0.00 0.00 0.00 59 1020.0
20260906073517 87 90 4.0 10.0 0.00 0.00 0.00 58 1020.0
20260906073017 86 248 3.0 6.0 0.00 0.00 0.00 59 1019.9
20260906072516 86 315 4.0 12.0 0.00 0.00 0.00 61 1019.8
20260906072017 86 68 4.0 11.0 0.00 0.00 0.00 61 1019.8
20260906071517 86 113 3.0 10.0 0.00 0.00 0.00 61 1019.8
20260906071017 86 68 4.0 9.0 0.00 0.00 0.00 61 1019.7
20260906070517 85 90 4.0 11.0 0.00 0.00 0.00 62 1019.7
20260906070016 85 90 4.0 10.0 0.00 0.00 0.00 63 1019.7
20260906065516 85 68 5.0 13.0 0.00 0.00 0.00 63 1019.7
20260906065017 85 90 3.0 9.0 0.00 0.00 0.00 61 1019.6
20260906064537 85 225 3.0 7.0 0.00 0.00 0.00 62 1019.6
20260906064016 85 90 2.0 7.0 0.00 0.00 0.00 62 1019.6
20260906063516 84 68 3.0 9.0 0.00 0.00 0.00 63 1019.6
20260906063036 84 68 4.0 9.0 0.00 0.00 0.00 65 1019.6
20260906062516 84 293 3.0 9.0 0.00 0.00 0.00 64 1019.6
20260906062036 83 338 4.0 10.0 0.00 0.00 0.00 65 1019.6
20260906061557 83 338 4.0 11.0 0.00 0.00 0.00 65 1019.7
20260906061036 83 0 5.0 11.0 0.00 0.00 0.00 65 1019.6
20260906060517 83 338 5.0 11.0 0.00 0.00 0.00 65 1019.6
20260906060016 83 0 5.0 9.0 0.00 0.00 0.00 64 1019.6
20260906055516 83 0 4.0 10.0 0.00 0.00 0.00 64 1019.6
20260906055017 83 0 5.0 11.0 0.00 0.00 0.00 64 1019.4
20260906054537 82 23 3.0 6.0 0.00 0.00 0.00 65 1019.4
20260906054017 82 0 5.0 9.0 0.00 0.00 0.00 67 1019.4
20260906053517 82 338 3.0 11.0 0.00 0.00 0.00 67 1019.5
20260906053056 81 315 4.0 9.0 0.00 0.00 0.00 68 1019.5
20260906052516 81 338 5.0 9.0 0.00 0.00 0.00 68 1019.3
20260906052016 81 90 3.0 8.0 0.00 0.00 0.00 69 1019.4
20260906051516 81 270 3.0 9.0 0.00 0.00 0.00 70 1019.4
20260906051016 81 315 3.0 8.0 0.00 0.00 0.00 69 1019.3
20260906050536 80 315 3.0 8.0 0.00 0.00 0.00 69 1019.3
20260906050039 80 338 4.0 8.0 0.00 0.00 0.00 69 1019.3
20260906045517 80 0 4.0 7.0 0.00 0.00 0.00 69 1019.3
20260906045016 80 293 3.0 8.0 0.00 0.00 0.00 68 1019.2
20260906044516 80 0 3.0 8.0 0.00 0.00 0.00 68 1019.2
20260906044016 80 0 2.0 5.0 0.00 0.00 0.00 68 1019.3
20260906043556 81 0 4.0 6.0 0.00 0.00 0.00 67 1019.3
20260906043016 81 315 7.0 11.0 0.00 0.00 0.00 67 1019.2
20260906042516 81 315 8.0 13.0 0.00 0.00 0.00 65 1019.3
20260906042016 81 293 8.0 14.0 0.00 0.00 0.00 65 1019.2
20260906041516 81 315 8.0 13.0 0.00 0.00 0.00 64 1019.2
20260906041017 81 293 9.0 14.0 0.00 0.00 0.00 64 1019.2
20260906040516 81 293 7.0 15.0 0.00 0.00 0.00 61 1019.2
20260906040016 81 315 3.0 11.0 0.00 0.00 0.00 63 1019.1
20260906035516 81 270 3.0 9.0 0.00 0.00 0.00 62 1019.1
20260906035036 81 315 3.0 10.0 0.00 0.00 0.00 62 1019.1
20260906034516 81 315 3.0 7.0 0.00 0.00 0.00 62 1019.1
20260906034016 81 338 3.0 7.0 0.00 0.00 0.00 62 1019.1
20260906033516 81 338 4.0 8.0 0.00 0.00 0.00 61 1019.1
20260906033016 81 338 2.0 8.0 0.00 0.00 0.00 61 1019.1
20260906032536 81 315 3.0 9.0 0.00 0.00 0.00 61 1019.0
20260906032038 81 293 3.0 7.0 0.00 0.00 0.00 61 1019.1
20260906031516 81 45 1.0 5.0 0.00 0.00 0.00 62 1019.0
20260906031016 81 315 1.0 4.0 0.00 0.00 0.00 64 1019.0
20260906030536 81 0 4.0 10.0 0.00 0.00 0.00 64 1019.1
20260906030016 81 338 2.0 6.0 0.00 0.00 0.00 63 1019.1
20260906025536 81 315 2.0 4.0 0.00 0.00 0.00 61 1019.1
20260906025036 81 315 2.0 5.0 0.00 0.00 0.00 62 1019.1
20260906024516 81 338 2.0 5.0 0.00 0.00 0.00 61 1019.2
20260906024016 81 338 3.0 6.0 0.00 0.00 0.00 61 1019.3
20260906023516 82 270 5.0 10.0 0.00 0.00 0.00 60 1019.4
20260906023016 82 315 5.0 12.0 0.00 0.00 0.00 61 1019.4
20260906022516 82 315 4.0 8.0 0.00 0.00 0.00 62 1019.3
20260906022016 82 315 5.0 11.0 0.00 0.00 0.00 61 1019.4
20260906021516 82 293 5.0 12.0 0.00 0.00 0.00 60 1019.4
20260906021016 82 270 5.0 13.0 0.00 0.00 0.00 59 1019.4
20260906020538 82 293 5.0 17.0 0.00 0.00 0.00 59 1019.4
20260906020016 82 315 4.0 9.0 0.00 0.00 0.00 59 1019.3
20260906015516 82 293 2.0 7.0 0.00 0.00 0.00 58 1019.3
20260906015036 82 338 2.0 8.0 0.00 0.00 0.00 57 1019.3
20260906014516 82 293 1.0 4.0 0.00 0.00 0.00 57 1019.3
20260906014036 82 0.0 2.0 0.00 0.00 0.00 56 1019.3
20260906013516 83 270 1.0 5.0 0.00 0.00 0.00 55 1019.3
20260906013016 83 293 3.0 7.0 0.00 0.00 0.00 52 1019.2
20260906012516 83 293 2.0 8.0 0.00 0.00 0.00 51 1019.2
20260906012016 83 45 2.0 5.0 0.00 0.00 0.00 52 1019.3
20260906011516 83 180 1.0 4.0 0.00 0.00 0.00 51 1019.2
20260906011036 83 0 2.0 9.0 0.00 0.00 0.00 50 1019.3
20260906010516 83 45 1.0 5.0 0.00 0.00 0.00 50 1019.1
20260906010016 82 248 2.0 6.0 0.00 0.00 0.00 52 1019.2
20260906005515 82 338 3.0 8.0 0.00 0.00 0.00 52 1019.1
20260906005016 82 248 1.0 2.0 0.00 0.00 0.00 55 1019.1
20260906004516 82 0 3.0 9.0 0.00 0.00 0.00 56 1019.1
20260906004035 82 270 1.0 5.0 0.00 0.00 0.00 55 1019.1
20260906003516 82 0 2.0 4.0 0.00 0.00 0.00 54 1019.2
20260906003056 82 45 1.0 5.0 0.00 0.00 0.00 58 1019.2
20260906002515 82 0 2.0 4.0 0.00 0.00 0.00 57 1019.2
20260906002036 82 23 2.0 6.0 0.00 0.00 0.00 58 1019.2
20260906001516 82 338 4.0 6.0 0.00 0.00 0.00 58 1019.3
20260906001016 82 338 2.0 5.0 0.00 0.00 0.00 57 1019.3
20260906000516 82 0 4.0 9.0 0.00 0.00 0.00 57 1019.3
20260906000016 82 338 3.0 8.0 0.00 0.00 0.00 60 1019.3
20260905235515 82 315 4.0 8.0 0.00 0.00 0.00 63 1019.3
20260905235016 81 338 2.0 6.0 0.00 0.00 0.00 64 1019.4
20260905234516 81 68 2.0 5.0 0.00 0.00 0.00 67 1019.5
20260905234015 82 113 1.0 5.0 0.00 0.00 0.00 67 1019.5
20260905233515 82 338 2.0 6.0 0.00 0.00 0.00 66 1019.6
20260905233036 82 315 2.0 7.0 0.00 0.00 0.00 65 1019.6
20260905232516 82 338 3.0 5.0 0.00 0.00 0.00 65 1019.8
20260905232016 82 315 3.0 8.0 0.00 0.00 0.00 63 1019.7
20260905231535 81 293 2.0 7.0 0.00 0.00 0.00 65 1019.7
20260905231015 81 338 2.0 3.0 0.00 0.00 0.00 67 1019.8
20260905230516 81 338 2.0 4.0 0.00 0.00 0.00 68 1019.9
20260905230015 81 0 2.0 5.0 0.00 0.00 0.00 68 1019.9
20260905225516 81 0 2.0 3.0 0.00 0.00 0.00 68 1019.8
20260905225016 81 0 3.0 5.0 0.00 0.00 0.00 68 1019.8
20260905224515 81 0 2.0 7.0 0.00 0.00 0.00 70 1019.8
20260905224015 81 338 2.0 6.0 0.00 0.00 0.00 72 1019.8
20260905223537 81 0 3.0 8.0 0.00 0.00 0.00 72 1019.8
20260905223015 80 0 5.0 9.0 0.00 0.00 0.00 76 1019.8
20260905222517 80 315 4.0 9.0 0.00 0.00 0.00 76 1019.8
20260905222018 80 338 4.0 8.0 0.00 0.00 0.00 76 1019.8
20260905221517 81 293 3.0 8.0 0.00 0.00 0.00 76 1019.9
20260905221017 81 293 3.0 8.0 0.00 0.00 0.00 76 1019.8
20260905220515 81 248 2.0 4.0 0.00 0.00 0.00 76 1019.8
20260905220019 81 270 2.0 6.0 0.00 0.00 0.00 75 1019.9
20260905215517 81 135 2.0 7.0 0.00 0.00 0.00 76 1019.8
20260905215037 81 203 2.0 4.0 0.00 0.00 0.00 76 1020.0
20260905214517 81 180 1.0 3.0 0.00 0.00 0.00 75 1019.9
20260905214017 81 158 2.0 4.0 0.00 0.00 0.00 75 1020.0
20260905213517 81 113 2.0 5.0 0.00 0.00 0.00 75 1020.0
20260905213017 81 180 2.0 5.0 0.00 0.00 0.00 75 1020.0
20260905212517 81 113 2.0 6.0 0.00 0.00 0.00 75 1019.9
20260905212017 81 180 3.0 7.0 0.00 0.00 0.00 75 1020.0
20260905211537 81 180 2.0 5.0 0.00 0.00 0.00 75 1020.1
20260905211037 81 203 1.0 5.0 0.00 0.00 0.00 75 1019.8
20260905210517 81 180 2.0 6.0 0.00 0.00 0.00 75 1020.0
20260905210017 81 158 2.0 4.0 0.00 0.00 0.00 75 1019.9
20260905205517 81 90 3.0 8.0 0.00 0.00 0.00 75 1019.9
20260905205017 81 135 2.0 4.0 0.00 0.00 0.00 74 1019.8
20260905204517 81 113 3.0 9.0 0.00 0.00 0.00 74 1019.8
20260905204017 81 203 2.0 9.0 0.00 0.00 0.00 74 1019.9
20260905203537 81 135 2.0 4.0 0.00 0.00 0.00 74 1019.9
20260905203038 81 90 3.0 9.0 0.00 0.00 0.00 74 1019.9
20260905202517 81 315 3.0 12.0 0.00 0.00 0.00 74 1020.0
20260905202017 81 180 3.0 7.0 0.00 0.00 0.00 74 1020.0
20260905201517 81 113 2.0 7.0 0.00 0.00 0.00 74 1020.0
20260905201017 81 90 4.0 10.0 0.00 0.00 0.00 74 1020.0
20260905200517 81 203 2.0 7.0 0.00 0.00 0.00 74 1020.1
20260905200017 81 90 3.0 6.0 0.00 0.00 0.00 74 1020.0
20260905195517 82 90 3.0 9.0 0.00 0.00 0.00 74 1020.0
20260905195017 82 68 2.0 8.0 0.00 0.00 0.00 74 1020.0
20260905194517 82 68 2.0 7.0 0.00 0.00 0.00 74 1020.0
20260905194036 82 90 2.0 7.0 0.00 0.00 0.00 73 1020.0
20260905193516 82 248 2.0 6.0 0.00 0.00 0.00 73 1019.9
20260905193016 82 180 2.0 4.0 0.00 0.00 0.00 73 1019.9
20260905192517 82 293 3.0 8.0 0.00 0.00 0.00 73 1019.9
20260905192017 82 315 3.0 9.0 0.00 0.00 0.00 73 1019.8
20260905191516 82 315 4.0 10.0 0.00 0.00 0.00 73 1019.8
20260905191037 82 293 3.0 9.0 0.00 0.00 0.00 72 1019.8
20260905190516 82 0 4.0 10.0 0.00 0.00 0.00 72 1019.6
20260905190017 82 270 3.0 10.0 0.00 0.00 0.00 72 1019.7
20260905185517 82 293 2.0 4.0 0.00 0.00 0.00 71 1019.6
20260905185036 82 293 3.0 6.0 0.00 0.00 0.00 71 1019.6
20260905184537 82 315 3.0 10.0 0.00 0.00 0.00 71 1019.6
20260905184016 82 293 4.0 10.0 0.00 0.00 0.00 70 1019.6
20260905183517 82 0 2.0 8.0 0.00 0.00 0.00 70 1019.6
20260905183037 82 338 3.0 8.0 0.00 0.00 0.00 69 1019.4
20260905182517 82 225 3.0 7.0 0.00 0.00 0.00 68 1019.3
20260905182016 82 315 3.0 8.0 0.00 0.00 0.00 67 1019.3
20260905181517 83 68 3.0 9.0 0.00 0.00 0.00 67 1019.2
20260905181017 83 23 1.0 5.0 0.00 0.00 0.00 67 1019.2
20260905180516 83 225 2.0 9.0 0.00 0.00 0.00 67 1019.2
20260905180036 83 248 2.0 4.0 0.00 0.00 0.00 66 1019.2
20260905175516 83 315 3.0 6.0 0.00 0.00 0.00 65 1019.1
20260905175016 83 270 2.0 3.0 0.00 0.00 0.00 65 1019.1